TimeMDT,TemperatureF,Dew PointF,Humidity,Sea Level PressureIn,VisibilityMPH,Wind Direction,Wind SpeedMPH,Gust SpeedMPH,PrecipitationIn,Events,Conditions,WindDirDegrees,DateUTC
12:53 AM,43.0,32.0,65,30.18,10.0,SSE,9.2,-,N/A,,Clear,150,2013-09-28 06:53:00
1:53 AM,43.0,30.9,62,30.17,10.0,SE,9.2,-,N/A,,Clear,130,2013-09-28 07:53:00
2:53 AM,45.0,33.1,63,30.17,10.0,SE,10.4,-,N/A,,Clear,140,2013-09-28 08:53:00
3:53 AM,43.0,33.1,68,30.17,10.0,SE,9.2,-,N/A,,Clear,130,2013-09-28 09:53:00
4:53 AM,43.0,32.0,65,30.18,10.0,SE,9.2,-,N/A,,Partly Cloudy,140,2013-09-28 10:53:00
5:53 AM,42.1,30.9,65,30.18,10.0,SE,8.1,-,N/A,,Partly Cloudy,130,2013-09-28 11:53:00
6:53 AM,43.0,34.0,71,30.19,10.0,SE,11.5,-,N/A,,Scattered Clouds,140,2013-09-28 12:53:00
7:53 AM,45.0,34.0,65,30.20,10.0,SSE,13.8,-,N/A,,Scattered Clouds,150,2013-09-28 13:53:00
8:53 AM,48.0,34.0,58,30.20,10.0,SE,12.7,-,N/A,,Partly Cloudy,140,2013-09-28 14:53:00
9:53 AM,52.0,34.0,50,30.21,10.0,SSE,13.8,-,N/A,,Partly Cloudy,160,2013-09-28 15:53:00
10:53 AM,55.9,34.0,44,30.20,10.0,SSE,13.8,-,N/A,,Partly Cloudy,150,2013-09-28 16:53:00
11:53 AM,60.1,30.9,33,30.19,10.0,SSE,15.0,-,N/A,,Partly Cloudy,150,2013-09-28 17:53:00
12:53 PM,63.0,27.0,26,30.17,10.0,South,16.1,21.9,N/A,,Scattered Clouds,170,2013-09-28 18:53:00
1:53 PM,64.9,27.0,24,30.14,10.0,South,18.4,25.3,N/A,,Scattered Clouds,180,2013-09-28 19:53:00
2:53 PM,66.0,26.1,22,30.11,10.0,SSW,15.0,-,N/A,,Scattered Clouds,210,2013-09-28 20:53:00
3:53 PM,68.0,18.0,15,30.09,10.0,South,13.8,-,N/A,,Scattered Clouds,170,2013-09-28 21:53:00
4:53 PM,66.9,23.0,19,30.09,10.0,South,9.2,-,N/A,,Scattered Clouds,190,2013-09-28 22:53:00
5:53 PM,66.9,25.0,21,30.07,10.0,South,8.1,-,N/A,,Scattered Clouds,190,2013-09-28 23:53:00
6:53 PM,64.9,26.1,23,30.06,10.0,South,6.9,-,N/A,,Scattered Clouds,190,2013-09-29 00:53:00
7:53 PM,59.0,28.0,31,30.06,10.0,SSE,6.9,-,N/A,,Partly Cloudy,150,2013-09-29 01:53:00
8:53 PM,57.9,28.0,32,30.06,10.0,SE,10.4,-,N/A,,Partly Cloudy,130,2013-09-29 02:53:00
9:53 PM,55.0,28.0,35,30.06,10.0,SE,9.2,-,N/A,,Clear,140,2013-09-29 03:53:00
10:53 PM,54.0,27.0,35,30.05,10.0,SE,8.1,-,N/A,,Clear,130,2013-09-29 04:53:00
11:53 PM,53.1,26.1,35,30.04,10.0,SE,8.1,-,N/A,,Partly Cloudy,140,2013-09-29 05:53:00